Location: Frankfurt+(oder)
(51.7984°N, 12.2168°E)
Time: 08:33:26
(UTC+01:00)

ISS - Pass Details

Date: 10 January 2018
Orbit: 402 x 406 km, 51.6° (Epoch: 16 January)

Event Time Altitude Azimuth Distance (km) Brightness Sun altitude
Exits shadow 06:32:38 29° 255° (WSW) 770 -2.9 -15.0°
Maximum altitude 06:33:48 43° 204° (SSW) 578 -3.2 -14.8°
Drops below altitude 10° 06:36:57 10° 131° (SE) 1,463 0.1 -14.4°
Sets 06:39:05 0° 124° (SE) 2,322 1.6 -14.0°
